This demonstration page uses our WeatherBlox Daily Observations layout. Learn more.

Left ArrowRight Arrow

Hourly Observations for November 18, 2022

Temp ( °F °C ) Dew Point ( °F °C ) Humidity (%) Winds ( mph kmh ) Pressure ( in mb ) Visibility ( mi km ) Precip ( " mm )
12:55 am 00:55 Clear 18 -8 5 -14.8 58 58 WNW 15 24 30.48 1032 10 16 0.00 0.00
1:55 am 01:55 Mostly Cloudy 17 -8.4 5 -15 59 59 NW 17 28 30.47 1032 10 16 0.00 0.00
2:55 am 02:55 Mostly Clear 16 -9 4 -15.8 58 58 NW 16 26 30.48 1032 10 16 0.00 0.00
3:55 am 03:55 Clear 15 -9.5 4 -15.8 60 60 WNW 15 24 30.48 1032 10 16 0.00 0.00
4:55 am 04:55 Clear 15 -9.7 4 -15.8 61 61 WNW 13 20 30.50 1033 10 16 0.00 0.00
5:55 am 05:55 Clear 14 -10.1 3 -16.2 61 61 NW 13 20 30.50 1033 10 16 0.00 0.00
6:55 am 06:55 Clear 13 -10.5 2 -16.4 62 62 WNW 15 24 30.50 1033 10 16 0.00 0.00
7:55 am 07:55 Sunny 13 -10.3 2 -16.4 61 61 WNW 10 17 30.54 1034 10 16 0.00 0.00
8:55 am 08:55 Sunny 16 -8.9 2 -16.5 54 54 W 12 19 30.54 1034 10 16 0.00 0.00
9:55 am 09:55 Sunny 19 -7.4 2 -16.8 47 47 WNW 20 31 30.52 1033 10 16 0.00 0.00
10:55 am 10:55 Mostly Sunny 21 -6.2 3 -16.2 45 45 NNW 20 31 30.52 1033 10 16 0.00 0.00
11:55 am 11:55 Cloudy 21 -6.1 3 -15.9 46 46 NW 18 30 30.48 1032 10 16 0.00 0.00
12:55 pm 12:55 Cloudy 22 -5.4 4 -15.8 44 44 W 18 30 30.45 1031 10 16 0.00 0.00
1:55 pm 13:55 Mostly Cloudy 24 -4.7 3 -16 41 41 WNW 16 26 30.43 1030 10 16 0.00 0.00
2:55 pm 14:55 Partly Cloudy 24 -4.3 3 -16.2 39 39 W 13 20 30.40 1030 10 16 0.00 0.00
3:55 pm 15:55 Mostly Sunny 24 -4.2 3 -16.1 39 39 W 14 22 30.40 1029 10 16 0.00 0.00
4:55 pm 16:55 Sunny 24 -4.5 2 -16.4 39 39 W 10 17 30.38 1029 10 16 0.00 0.00
5:55 pm 17:55 Clear 22 -5.7 3 -16.3 43 43 WSW 6 9 30.38 1029 10 16 0.00 0.00
6:55 pm 18:55 Clear 20 -6.5 3 -16.2 46 46 SW 6 9 30.36 1028 10 16 0.00 0.00
7:55 pm 19:55 Clear 19 -7.3 2 -16.5 48 48 SW 6 9 30.34 1028 10 16 0.00 0.00
8:55 pm 20:55 Clear 20 -6.5 1 -17 43 43 WSW 7 11 30.31 1026 10 16 0.00 0.00
9:55 pm 21:55 Clear 20 -6.7 1 -17.5 42 42 SSW 10 17 30.28 1025 10 16 0.00 0.00
10:55 pm 22:55 Clear 20 -6.7 1 -17.5 42 42 SSW 5 7 30.26 1025 10 16 0.00 0.00
11:55 pm 23:55 Clear 23 -5 1 -17.5 37 37 WSW 13 20 30.22 1024 10 16 0.00 0.00
11:58 pm 23:58 Clear 23 -5 1 -17.5 37 37 SW 14 22 30.22 1023 10 16 0.00 0.00

Powered by AerisWeather